Regional Weather Roundup
Issued by NWS Pendleton, OR

Current Version | Previous Version | Text Only | Print | Product List | Glossary On
Versions: 1 2 3 4 5 6 7 8 9 10 11 12 13 14 15 16 17 18 19 20 21 22 23 24 25 26 27 28 29 30 31 32 33 34 35 36 37 38 39 40 41 42 43 44 45 46 47 48 49 50
000
ASUS46 KPDT 231425
RWRPDT
PENDLETON REGIONAL WEATHER ROUNDUP
NATIONAL WEATHER SERVICE PENDLETON OREGON
700 AM PDT TUE SEP 23 2014

NOTE: FAIR INDICATES FEW OR NO CLOUDS BELOW 12,000 FEET WITH NO
SIGNIFICANT WEATHER AND/OR OBSTRUCTIONS TO VISIBILITY.

# INDICATES UNOFFICIAL STATION AND DATA

WAZ520-231510-
EAST SLOPES OF WASHINGTON CASCADES

CITY            SKY/WX      TMP DP  RH  WIND    PRES   REMARKS
#BUMPING DAM    N/A         47  N/A N/A CALM    N/A
#CLE ELUM HS    N/A         49  47  93  CALM    29.86F
#CLE ELUM 2NW   N/A         49  47  93  NW1     N/A
#CLE ELUM LAKE  N/A         55  47  74  CALM    29.78F
#CLIFFDEL 2NW   N/A         49  46  89  S3      N/A
#GLENWOOD       N/A         48  46  93  CALM    29.82S
#MANASTASH CYN  N/A         53  41  64  CALM    29.90S
#NELSON         N/A         49  47  93  CALM    29.84F
#NELSON 3SW     N/A         50  44  80  CALM    30.01S
#NILE           N/A         53  47  80  SW1     29.11F
#SNOWDEN        N/A          0  -78  1  CALM    N/A
#TEANAWAY 4NE   N/A         49  48  96  CALM    N/A
#TROUT LAKE 1NE N/A         50  46  86  CALM    29.82S
$$

WAZ521-231510-
SIMCOE HIGHLANDS

CITY            SKY/WX      TMP DP  RH  WIND    PRES   REMARKS
#BICKLETON HS   N/A         58  37  45  CALM    30.00S
#CENTERVILLE 4W N/A         59  46  62  NW2     29.64R
#GOLDENDALE     N/A         56  45  66  E1      N/A
#GOLDENDALE 1NE N/A         56  39  53  N3      N/A
#GOLDENDALE 1S  N/A         55  46  72  CALM    29.85F
#GOLDENDALE 5WNWN/A         56  46  69  CALM    29.79F
#GOODNOE HILLS  N/A         61  50  67  NW5     29.80F
#LYLE 6NE       N/A         57  49  75  CALM    29.78F
$$

WAZ026-231510-
KITTITAS VALLEY

CITY            SKY/WX      TMP DP  RH  WIND    PRES   REMARKS
ELLENSBURG AP   PTCLDY      55  48  77  CALM    29.89S
#ELLENSBURG CWU N/A         53  50  89  SE3     29.80S
#ELLENSBURG 3NE N/A         52  49  89  CALM    29.90S
#ELLENSBURG     N/A         55  54  96  CALM    N/A
#KITTITAS 3S    N/A         49  48  96  CALM    29.82S
#THORP 6N       N/A         53  46  77  N3      29.84R
$$

WAZ027-231510-
YAKIMA VALLEY

CITY            SKY/WX      TMP DP  RH  WIND    PRES   REMARKS
SUNNYSIDE AP    PTCLDY      54  52  93  NE5     29.85S
YAKIMA AIRPORT  MOCLDY      57  49  75  CALM    29.86F
YAKIMA-VAGABOND MOCLDY      59  46  62  NE2     29.88S
#COWICHE 1N     N/A         60  46  60  N1      30.04S
#DONALD 2NE     N/A         63  45  52  S3      30.17S
#GRANDVIEW      N/A         59  51  75  CALM    29.82F
#MABTON         N/A         59  52  78  CALM    29.84S
#MOXEE 2E       N/A         60  38  44  CALM    29.83S
#NACHES 2SW     N/A         59  48  67  W2      29.88F
#OUTLOOK DOT    N/A         N/A N/A N/A E2      N/A
#SELAH 8E       N/A         57  39  51  SE2     N/A
#TERRACE HTS    N/A         58  50  75  CALM    29.78S
#TOPPENISH      N/A         59  52  78  CALM    29.73S
#WAPATO 4NE     N/A         63  45  52  S3      30.17S
#W YAKIMA       N/A         61  48  62  N3      29.80F
#WHITE SWAN 5E  N/A         56  49  77  CALM    29.82S
#WILEY CITY 3W  N/A         59  51  75  CALM    29.86F
$$

WAZ028-231510-
LOWER COLUMBIA BASIN...WASHINGTON

CITY            SKY/WX      TMP DP  RH  WIND    PRES   REMARKS
HANFORD         CLOUDY      64  54  70  N5      29.85S
PASCO           MOCLDY      62  61  97  CALM    29.84S
PROSSER AWOS    N/A         57  54  90  W2      29.87S
#BASIN CITY 5SW N/A         61  57  87  NE1     29.84F
#BENTON CITY    N/A         62  51  67  CALM    29.72S
#CONNELL 5N     N/A         60  54  81  CALM    29.82S
#CONNELL 5NW    N/A         59  55  87  CALM    29.78S
#ELTOPIA        N/A         63  58  84  CALM    29.79S
#ELTOPIA 6NW    N/A         61  57  87  CALM    28.82F
#KENNEWICK 3S   N/A         64  57  78  CALM    29.80S
#PASCO-BROADMOORN/A         64  60  87  E1      29.71F
#PATERSON       N/A         62  58  87  CALM    29.81S
#PROSSER        N/A         64  48  56  SW3     29.80S
#SAGEMOOR 2W    N/A         60  57  90  NW1     29.68R
#TOUCHET 2S     N/A         57  54  90  CALM    29.80S
#WEST PASCO     N/A         64  58  81  CALM    29.80F
$$

WAZ029-231510-
FOOTHILLS OF THE BLUES...WASHINGTON

CITY            SKY/WX      TMP DP  RH  WIND    PRES   REMARKS
WALLA WALLA AP  MOCLDY      65  57  75  E5      29.86S
#DAYTON SCHOOL  N/A         63  52  67  CALM    29.86F
#LOWDEN 2SE     N/A         59  57  93  CALM    29.80S
#PLEASANT VIEW 1N/A         63  55  75  NW1     29.84S
#PRESCOTT       N/A         60  56  87  CALM    29.80S
#SUDBURY        N/A         63  N/A N/A CALM    N/A
#WHITMAN COLLEGEN/A         63  57  81  E2      29.85S
#WAITSBURG 8N   N/A         64  44  48  NW6     29.76F
#WALLA WALLA 5E N/A         63  57  81  W7      N/A
#WALLA WALLA U  N/A         62  59  90  CALM    29.80S
#WHITMAN MISSIONN/A         60  58  93  CALM    29.82S
$$

WAZ030-231510-
BLUE MOUNTAINS...WASHINGTON

CITY            SKY/WX      TMP DP  RH  WIND    PRES   REMARKS
$$

ORZ009-041-WAZ024-231510-
COLUMBIA RIVER GORGE

CITY            SKY/WX      TMP DP  RH  WIND    PRES   REMARKS
HOOD RIVER AP   MOCLDY      55  52  90  CALM    29.86S
THE DALLES AP   MOCLDY      59  52  78  CALM    29.84S
#ARLINGTON AIRPON/A         63  51  65  W5      29.93R
#ARLINGTON HS   N/A         63  51  65  CALM    29.73F
#MARYHILL 2W    N/A         62  55  78  CALM    N/A
#MOSIER 1S      N/A         58  48  69  CALM    29.85F
#MURDOCK        N/A         63  57  81  NW8     29.86R
#RUFUS DOT      N/A         N/A N/A N/A E2      N/A

$$

ORZ510-231510-
NORTH CENTRAL OREGON

CITY            SKY/WX      TMP DP  RH  WIND    PRES   REMARKS
#CHENOWITH 1W   N/A         57  50  77  NW8     N/A
#COW CYN RST AREN/A         60  50  69  SW1     N/A
#DUFUR 9E       N/A         62  47  58  CALM    29.85S
#GRASS VALLEY   N/A         54  45  71  S1      N/A
#GRASS VALLEY 1SN/A         57  46  67  CALM    29.85R
#KENT DOT       N/A         61  43  51  SE2     N/A
#MAUPIN SCHOOL  N/A         61  48  62  CALM    28.75R
#MORO SCHOOL    N/A         56  51  83  CALM    29.89S
#SHANIKO 5WSW   N/A         60  50  69  S8      N/A
#SHANIKO 4NW    N/A         59  52  78  S7      29.94S
#TYGH VALLEY 2NEN/A         57  47  69  CALM    29.82R
#WAPANITIA AIRPON/A         56  44  64  CALM    29.81R
#WASCO DOT      N/A         55  50  83  E1      N/A
#WASCO AIRPORT  N/A         60  47  62  E2      N/A
#WASCO 5NE      N/A         54  47  77  CALM    29.81S
$$

ORZ511-231510-
CENTRAL OREGON

CITY            SKY/WX      TMP DP  RH  WIND    PRES   REMARKS
BEND AIRPORT    MOCLDY      54  45  71  S3      29.97R
MADRAS AIRPORT  MOCLDY      57  48  72  CALM    29.92R
REDMOND AIRPORT MOCLDY      57  47  69  SE6     29.94R
#BEND 6E        N/A         54  44  69  CALM    29.77R
#BEND 1SW       N/A         56  46  69  S1      N/A
#BEND-AWBREY    N/A         58  47  67  N8      29.78S
#BEND-KIM LN    N/A         57  48  72  SW1     29.93S
#CROOKED RVR RANN/A         56  48  74  W1      29.78S
#CULVER         N/A         61  51  70  SE2     29.88S
#LAKE BILLY CHINN/A         59  23  25  CALM    29.96S
#POWELL BUTTE 3EN/A         60  51  72  SE3     N/A
#POWELL BUTTE   N/A         60  47  62  SW6     29.59S
#PRINEVILLE 3N  N/A         55  51  86  CALM    29.78R


ORZ509-231510-
EAST SLOPES OF OREGON CASCADES

CITY            SKY/WX      TMP DP  RH  WIND    PRES   REMARKS
#BLUE BOX PASS  N/A         55   3  12  SW1     N/A
#CAMP SHERMAN   N/A         48  38  68  CALM    29.86R
#LA PINE DOT    N/A         48  42  80  CALM    N/A
#LA PINE 4NW    N/A         46  40  79  CALM    29.87S
#LAVA BUTTE DOT N/A         50  44  80  W7      N/A
#SISTERS AIRPOR N/A         51  46  83  CALM    29.91S
#SISTERS ODOT   N/A         51  N/A N/A CALM    N/A
#SISTERS 1NW    N/A         49  40  71  NE6     N/A
#SISTERS 3N     N/A         49  36  61  CALM    N/A
#SUNRIVER       N/A         49  45  86  CALM    29.72R
#SUNRIVER AP    N/A         48  45  89  CALM    29.79R
#SUTTLE LK DOT  N/A         47  39  74  S7      N/A
#TUMALO 3W      N/A         56  44  64  SE2     29.68R
#WANOGA BUTTE D N/A         50  42  74  W6      N/A

$$

ORZ044-231510-
LOWER COLUMBIA BASIN...OREGON

CITY            SKY/WX      TMP DP  RH  WIND    PRES   REMARKS
HERMISTON       MOCLDY      58  55  90  CALM    29.84S
#BOARDMAN SCHOOLN/A         61  54  78  CALM    29.83S
#BOARDMAN 3W    N/A         59  54  83  CALM    29.56S
#BOARDMAN 8SW   N/A         60  55  84  W1      29.81F
#ECHO 8SW       N/A         59  52  78  SW3     29.82S
#IONE SCHOOL    N/A         59  47  64  CALM    29.85S
#IRRIGON 4NW    N/A         58  55  90  SW2     N/A
#UMATILLA SCHOOLN/A         60  60  100 CALM    29.90F
#UMATILLA       N/A         61  55  81  CALM    29.80F
$$

ORZ507-231510-
NORTHERN FOOTHILLS OF THE BLUES

CITY            SKY/WX      TMP DP  RH  WIND    PRES   REMARKS
PENDLETON AIRPT MOCLDY      60  55  84  CALM    29.86S
#ADAMS 3WNW     N/A         61  56  84  CALM    29.80S
#ATHENA         N/A         65  56  73  CALM    29.81F
#HELIX SCHOOL   N/A         59  56  90  SE1     29.80S
#HELIX 3N       N/A         62  55  78  SE7     29.85S
#HOLDMAN 5SE    N/A         59  56  90  CALM    29.87S
#HOLDMAN 6E     N/A         61  55  81  CALM    29.62S
#M-F GROVE ELEM N/A         69  54  59  CALM    29.84S
#M-FREEWATER 5SEN/A         71  55  57  E7      29.85S
#PENDLETON DNTN N/A         60  58  93  CALM    29.88S
#PDT AQUATIC CTRN/A         61  54  78  CALM    29.85S
#PENDLETON 5NE  N/A         59  56  90  CALM    29.83S
#PDT SUNRIDGE   N/A         58  56  93  CALM    29.86F
#PENDLETON 7NW  N/A         59  54  83  SE6     25.43S
#PILOT ROCK     N/A         61  52  72  CALM    29.90R
#TUTUILLA       N/A         57  54  90  CALM    29.82F
#UMAPINE 2E     N/A         60  58  93  CALM    29.81S

$$

ORZ508-231510-
SOUTHERN FOOTHILLS OF THE BLUES

CITY            SKY/WX      TMP DP  RH  WIND    PRES   REMARKS
LEXINGTON       CLOUDY      61  52  72  SE5     29.89S
#AJAX           N/A         62  42  48  CALM    29.83F
#CONDON SCHOOL  N/A         59  54  83  CALM    29.88F
#CONDON 5W      N/A         60  50  69  CALM    29.90F
#FOSSIL SCHOOL  N/A         58  54  87  CALM    29.88F
#HEPPNER 4NE    N/A         58  49  72  CALM    29.79R
#LEXINGTON 2SE  N/A         61  53  75  CALM    29.83S
#MIKKALO        N/A         61  47  60  SE1     29.88S
#OLEX 4N        N/A         61  51  70  SW1     29.85S
#RUGGS 5NE      N/A         62  52  70  CALM    30.07S
#RUGGS 2SW      N/A         63  53  70  CALM    29.80S

$$

ORZ502-503-231510-
BLUE MOUNTAINS

CITY            SKY/WX      TMP DP  RH  WIND    PRES   REMARKS
MEACHAM         CLOUDY      56  54  93  CALM    29.98R
#BATTLE MTN DOT N/A         52  52  100 SE7     N/A
#HARDMAN 10S    N/A         54  52  93  S1      30.03S
#HEPPNER 15SE   N/A         62  51  67  CALM    29.87F
#LADD CYN SMT   N/A         54  51  90  SE7     N/A
#LADD CREEK ODOTN/A         54  53  96  SW2     N/A
#N POWDER DOT   N/A         53  53  100 NE1     N/A
#PIKES PEAK     N/A         69  51  53  S25G32  27.99S
#TOLLGATE       N/A         54  50  86  NW1     29.97R
#TROY SCHOOL    N/A         59  57  93  CALM    29.75S
#UKIAH          N/A         51  50  96  CALM    29.88F
#WESTON 4E      N/A         62  53  72  E10     29.75S
$$

ORZ505-231510-
JOHN DAY BASIN

CITY            SKY/WX      TMP DP  RH  WIND    PRES   REMARKS
JOHN DAY        CLOUDY      59  54  83  CALM    30.00R
#JOHN DAY KJDY  N/A         57  51  80  CALM    30.14R
#MONUMENT HS    N/A         58  55  90  CALM    29.93S
#MT. VERNON 5SE N/A         62  50  65  E7      29.95R
#WINLOCK        N/A         58  53  83  CALM    30.03S
$$

ORZ506-231510-
OCHOCO AND JOHN DAY HIGHLANDS

CITY            SKY/WX      TMP DP  RH  WIND    PRES   REMARKS
#BUCK CREEK DOT N/A         61  52  72  CALM    N/A
#HORSE RIDGE DO N/A         54  46  74  CALM    N/A
#KEYES SMT DOT  N/A         60  51  72  NE2     N/A
#PAULINA SCHOOL N/A         51  48  89  CALM    30.00R
#PINE MTN OBS   N/A         51  43  74  S16G28  N/A
#PRAIRIE CITY   N/A         52  51  96  E1      29.99R
#SENECA 9NW     N/A         48  47  96  CALM    29.85F
$$

ORZ049-231510-
GRANDE RONDE VALLEY

CITY            SKY/WX      TMP DP  RH  WIND    PRES   REMARKS
LA GRANDE       CLOUDY      55  46  72  NW3     29.97S
#COVE           N/A         55  55  100 CALM    29.91R
#COVE SCHOOL    N/A         55  54  96  CALM    29.96S
#COVE 6NW       N/A         53  51  93  CALM    29.91R
#ELGIN 3N       N/A         54  53  96  CALM    29.72R
#ELGIN 1E       N/A         55  51  86  CALM    N/A
#IMBLER SCHOOL  N/A         55  48  77  N5      29.95R
#LADD CYN DOT   N/A         56  54  93  CALM    N/A
#LA GRANDE ELEM N/A         57  54  90  CALM    29.96S
#UNION 1S       N/A         55  54  96  CALM    29.78R
$$

ORZ050-231510-
WALLOWA COUNTY

CITY            SKY/WX      TMP DP  RH  WIND    PRES   REMARKS
JOSEPH AIRPORT  CLOUDY      54  52  93  CALM    30.02F
#ENTERPRISE AP  N/A         53  50  89  E3      29.95F
#ENTERPRISE HS  N/A         53  52  96  CALM    30.02F
#IMNAHA SCHOOL  N/A         60  56  87  CALM    29.94F
#IMNAHA 10S     N/A         56  54  93  SW2     29.98F
#JOSEPH 3N      N/A         51  49  93  N1      30.02F
#JOSEPH 3W      N/A         53  52  96  NW2     29.86F
#LOSTINE        N/A         53  51  93  CALM    29.68F
#MT HOWARD 8000 N/A         51  40  66  S15G30  30.20F
#PROMISE 1S     N/A         53  52  96  CALM    29.97R
#SHEEP RDG 7000 N/A         56  43  62  CALM    29.81S
#WALLOWA SCHOOL N/A         53  52  96  CALM    30.78S



$$



USA.gov is the U.S. government's official web portal to all federal, state and local government web resources and services.